Location: Bareilles
(42.8958°N, 0.4261°E)
Time: 04:14:55
(UTC+00:00)

Daily predictions for brighter satellites

Satellite Brightness Start Highest point End
(mag) Time Altitude Azimuth Time Altitude Azimuth Time Altitude Azimuth
COSMOS 2455 4.2 00:04:46 24° ESE 00:05:26 24° ESE 00:10:07 10° NE
MetOp-A 3.4 00:06:33 72° NNW 00:06:33 72° NNW 00:10:00 10° NNW
Nadezhda 1 Rocket 4.0 00:04:29 48° SSW 00:06:13 70° W 00:12:25 10° N
Cosmos 2082 Rocket 2.4 00:02:59 10° NW 00:08:25 51° WSW 00:09:02 49° SW
Cosmos 2278 Rocket 3.9 00:06:22 13° WSW 00:10:21 27° NW 00:15:08 10° N
NOSS 3-1 (A) 4.5 00:14:36 20° ESE 00:14:36 20° ESE 00:17:54 10° ENE
Cosmos 1110 Rocket 4.3 00:11:17 10° NNW 00:16:14 47° WSW 00:16:32 47° WSW
SL-8 R/B 3.7 00:15:46 48° W 00:17:01 76° NNW 00:21:48 10° ENE
Cosmos 1452 Rocket 3.4 00:15:01 10° NNW 00:20:15 71° WSW 00:20:55 63° SSW
USA 308 4.3 00:23:07 23° ENE 00:23:07 23° ENE 00:25:01 10° ENE
NOSS 3-1 (C) 2.6 00:22:32 70° SSE 00:22:48 72° ESE 00:28:05 10° NE
CZ-3B R/B 3.8 00:28:33 40° SSW 00:31:21 78° SE 00:56:11 10° NE
Cosmos 972 Rocket 4.0 00:28:29 10° NNW 00:34:06 72° WSW 00:34:56 60° SSW
COSMOS 2406 3.2 00:30:20 10° NNW 00:35:59 67° WSW 00:37:01 55° SSW
Cosmos 2341 Rocket 3.9 00:30:07 10° N 00:36:23 87° E 00:38:22 47° S
SL-8 Rocket 3.9 00:33:56 10° N 00:40:06 85° W 00:41:58 48° S
SL-4 R/B 3.1 00:42:23 28° ENE 00:42:23 28° ENE 00:44:02 10° ENE
Cosmos 2297 3.6 00:45:21 53° SSW 00:46:46 82° ESE 00:52:31 10° NNE
Cosmos 2369 Rocket 2.1 00:50:46 50° SW 00:52:15 79° WNW 00:57:53 10° NNE
Lacrosse 4 Rocket 3.0 00:50:01 10° NNW 00:53:49 32° NE 00:56:30 17° ESE
DELTA 2 DEB (DPAF) 3.9 00:50:36 10° NNE 00:53:47 60° ENE 00:53:47 60° ENE
CZ-2C R/B 3.3 00:55:17 35° WSW 00:55:46 36° W 01:00:33 10° NNW
USA 290 3.2 00:54:52 10° NNW 00:57:15 45° N 00:57:15 45° N
Cosmos 1959 Rocket 4.4 00:52:02 10° N 00:58:17 79° W 01:00:25 44° S
Cosmos 2228 Rocket 3.7 00:59:27 40° W 00:59:51 41° WNW 01:04:01 10° N
ADEOS Rocket 4.0 00:57:31 10° NNE 01:03:11 35° E 01:05:49 24° SE
USA 276 4.1 01:09:04 22° NNW 01:09:41 24° NNW 01:12:10 10° NE
Cosmos 1818 3.5 01:09:43 50° SSW 01:11:12 84° ESE 01:16:40 10° NE
In-Cosmos 22 Rocket 4.4 01:09:23 40° SSE 01:11:12 63° E 01:16:42 10° NNE
ARIANE 6 FM1 Upper Stage 3.7 01:16:12 30° W 01:17:27 38° NW 01:21:18 10° NNE
Cosmos 1300 Rocket 3.4 01:14:01 10° N 01:18:23 89° SE 01:19:07 61° S
Cosmos 1315 Rocket 4.2 01:16:34 10° NW 01:19:10 25° WNW 01:19:10 25° WNW
Cosmos 1703 Rocket 4.1 01:25:41 41° WSW 01:26:18 43° WNW 01:30:31 10° N
Cosmos 2181 Rocket 4.3 01:25:44 35° SW 01:28:09 55° WNW 01:34:25 10° N
ATLAS 5 CENTAUR R/B 3.1 01:30:58 13° WNW 01:31:48 14° NW 01:33:34 10° N
Nadezhda 3 Rocket 3.9 01:29:57 36° S 01:32:40 90° WSW 01:38:57 10° N
Cosmos 1339 Rocket 4.5 01:32:02 32° S 01:34:57 75° E 01:41:01 10° N
Meteor 1-21 Rocket 4.5 01:32:42 33° S 01:35:27 69° E 01:41:21 10° NNE
Cosmos 407 Rocket 4.3 01:37:55 26° SSE 01:40:09 40° ESE 01:44:54 10° NE
SJ 16-02 2.7 01:39:46 22° SE 01:41:22 29° E 01:45:03 10° NE
PSLV R/B 4.1 01:37:46 10° N 01:41:31 50° WNW 01:42:06 45° WSW
Cosmos 921 Rocket 3.1 01:41:10 44° SSE 01:42:17 64° ESE 01:46:27 10° NNE
USA 308 3.8 01:41:52 26° WNW 01:43:21 37° NNW 01:47:18 10° NE
Nimbus 7 Rocket 4.3 01:38:53 10° NNE 01:44:49 90° S 01:47:36 33° SSW
ACS3 Solar Sail 3.1 01:40:58 10° NNW 01:45:26 25° WNW 01:48:09 17° WSW
Spot 1 4.5 01:44:21 10° N 01:49:16 64° WNW 01:51:01 38° SW
COSMOS 2455 3.2 01:47:52 29° WSW 01:50:53 58° NW 01:56:51 10° NNE
IDEFIX/ARIANE 42P 2.5 01:49:32 10° NNE 01:54:48 84° WNW 01:57:12 33° SSW
Cosmos 540 Rocket 4.4 01:50:34 10° N 01:55:29 47° ENE 02:00:21 10° SE
Iridium 82 4.2 02:00:15 54° WNW 02:00:15 54° WNW 02:02:45 10° N
SL-19 R/B 4.5 01:59:03 26° SE 02:00:38 54° ENE 02:03:51 10° N
ADEOS II 4.3 01:58:38 10° NE 02:02:16 19° E 02:05:52 10° SE
Meteor 1-11 4.3 02:00:23 26° S 02:03:36 74° E 02:09:15 10° NNE
NOSS 3-1 (A) 3.5 02:01:56 26° WSW 02:04:20 49° NW 02:09:43 10° NNE
Resurs 1-4 Rocket 3.3 02:07:54 10° NNE 02:12:42 35° E 02:17:13 11° SSE
Cosmos 1140 Rocket 4.0 02:11:29 27° WSW 02:13:53 46° WNW 02:18:48 10° N
Cosmos 1656 3.8 02:11:00 25° S 02:14:10 64° ESE 02:19:38 10° NNE
Cosmos 1346 Rocket 2.9 02:14:57 38° WSW 02:15:54 49° WNW 02:19:26 10° N
H-2A R/B 3.5 02:13:30 10° NNE 02:18:12 32° E 02:22:45 10° SSE
SL-4 R/B 3.6 02:15:53 10° WNW 02:18:25 22° NNW 02:20:56 10° NE
Cosmos 1605 Rocket 4.2 02:14:45 10° N 02:21:04 74° E 02:27:14 10° SSE
COSMOS 2441 4.4 02:17:38 10° NNE 02:22:32 81° ESE 02:25:38 23° S
Cosmos 371 Rocket 3.3 02:23:01 28° SW 02:25:34 69° WNW 02:30:24 10° NNE
Cosmos 1763 Rocket 3.3 02:22:14 10° NNW 02:27:19 81° WSW 02:32:20 10° SSE
Cosmos 304 Rocket 4.0 02:25:25 27° SW 02:27:52 56° WNW 02:32:34 10° NNE
Cosmos 1809 Rocket 4.5 02:23:30 20° S 02:28:01 89° W 02:34:15 10° N
Lacrosse 4 Rocket 2.5 02:28:00 10° NW 02:31:26 25° WSW 02:31:50 24° WSW
Cosmos 2297 Rocket 3.3 02:29:51 10° NNW 02:35:18 47° ENE 02:40:45 10° SE
Cosmos 2369 Rocket 4.4 02:34:13 10° WNW 02:37:13 14° NW 02:40:14 10° NNW
Cosmos 1535 Rocket 4.5 02:30:59 10° N 02:37:18 80° W 02:43:29 10° S
Cosmos 1025 Rocket 3.0 02:34:41 21° S 02:37:35 89° E 02:41:57 10° N
OPS 8737 4.4 02:35:06 10° NNW 02:38:12 72° NE 02:41:22 10° SE
MOZ.5/SAFIR/RUBIN 5/SL-8 3.6 02:35:42 11° S 02:40:04 81° WSW 02:44:43 10° NNW
FENGYUN 3A 4.3 02:38:07 10° N 02:43:09 43° WNW 02:46:39 19° SW
Lacrosse 5 rocket 4.2 02:43:33 10° N 02:45:10 13° NNE 02:46:47 10° NE
CZ-2D R/B 2.5 02:40:07 10° NNE 02:45:32 63° ESE 02:50:45 11° S
ADEOS Rocket 3.8 02:42:59 10° N 02:48:39 36° WNW 02:52:44 16° WSW
DMSP B5D2-2 4.0 02:45:49 10° S 02:51:03 72° WSW 02:56:19 10° NNW
ATLAS 3B R/B 4.0 02:45:51 10° S 02:52:43 40° ESE 02:59:51 10° NE
NOSS 2-2 (C) 3.6 02:50:48 10° NW 02:54:45 76° SW 03:00:13 10° SSE
ALOS 2.3 02:50:22 10° NNE 02:54:56 77° ESE 02:59:09 12° S
SL-24 DEB 4.2 02:54:34 15° SSW 02:58:09 55° W 03:02:31 10° NNW
Cosmos 468 Rocket 3.9 02:53:08 10° NNW 02:58:17 88° WSW 03:03:23 10° SSE
Cosmos 2360 4.3 02:54:41 17° SW 02:59:06 67° WNW 03:04:48 10° NNE
Cosmos 1455 Rocket 3.7 03:01:42 10° N 03:05:57 56° E 03:10:12 10° SSE
Cosmos 1153 Rocket 4.5 03:00:59 10° N 03:07:13 87° W 03:13:21 10° S
Cosmos 405 Rocket 3.6 03:06:51 16° WSW 03:08:14 22° WNW 03:10:38 10° NNW
Cosmos 2292 Rocket 2.5 03:06:53 14° S 03:09:19 82° W 03:12:34 10° N
Cosmos 2084 Rocket 3.5 03:07:47 14° SSW 03:11:06 65° ESE 03:15:07 10° NE
Cosmos 374 Rocket 4.2 03:09:55 15° SW 03:13:13 80° NW 03:16:59 10° NE
Okean 2 Rocket 3.2 03:08:59 10° NNW 03:13:14 53° W 03:17:27 10° S
Envisat 3.4 03:08:56 10° N 03:13:50 50° WNW 03:18:23 12° SW
Cosmos 546 4.5 03:11:12 10° WNW 03:14:58 71° SW 03:18:42 10° SE
SeaSat 1 2.4 03:10:27 10° SSE 03:15:20 82° WSW 03:20:16 10° NNW
SJ 16-02 2.7 03:16:15 12° WSW 03:19:24 25° WNW 03:22:55 10° N
Cosmos 1727 Rocket 4.0 03:13:29 10° S 03:19:43 79° W 03:25:57 10° N
CENTAUR R/B 3.7 03:11:30 10° NW 03:19:57 76° NE 03:29:30 10° SE
Cosmos 2151 Rocket 4.5 03:17:53 10° NNW 03:21:51 31° W 03:25:48 10° SSW
USA 229 DEB 3.6 03:18:16 10° SSW 03:24:04 77° ESE 03:30:39 10° NE
USA 229 3.6 03:18:17 10° SSW 03:24:07 76° ESE 03:30:41 10° NE
BREEZE-M DEB (TANK) 4.3 03:14:19 10° W 03:24:10 42° NNW 03:27:25 10° ENE
Cosmos 292 Rocket 4.0 03:22:53 10° S 03:27:36 69° ESE 03:32:20 10° NNE
Cosmos 968 Rocket 4.0 03:22:41 10° S 03:27:49 61° ESE 03:32:59 10° NNE
Meteor 2-16 Rocket 4.5 03:21:57 10° SSW 03:28:00 71° W 03:34:06 10° N
Cosmos 1862 3.2 03:26:03 10° S 03:29:34 75° E 03:33:06 10° NNE
Cosmos 2221 Rocket 4.3 03:27:51 10° SW 03:32:03 38° WNW 03:36:19 10° N
SL-16 R/B 3.4 03:26:16 10° SE 03:32:16 55° ENE 03:38:16 10° N
Cosmos 1459 Rocket 4.1 03:27:02 10° N 03:33:14 85° E 03:39:31 10° S
Cosmos 841 Rocket 3.5 03:28:26 10° NNW 03:33:40 88° WSW 03:38:50 10° SSE
Cosmos 2173 Rocket 4.1 03:27:57 10° N 03:34:18 88° W 03:40:31 10° S
METEOR-M 4.2 03:29:29 10° NNE 03:34:52 85° WNW 03:40:12 10° SSW
Cosmos 1954 Rocket 4.4 03:34:35 10° SW 03:39:35 48° WNW 03:44:35 10° N
NOSS 2-2 (E) 3.7 03:36:58 10° NW 03:40:51 89° NNE 03:46:17 10° SE
ADEOS II 2.3 03:37:02 10° N 03:42:09 56° WNW 03:47:14 10° SSW
SL-8 R/B 4.4 03:37:54 10° WNW 03:42:36 57° NNE 03:47:18 10° E
Cosmos 2100 Rocket 4.0 03:36:29 10° NNW 03:42:46 74° W 03:48:55 10° S
Cosmos 2016 Rocket 4.5 03:39:35 10° N 03:45:46 68° E 03:52:00 10° SSE
Cosmos 1697 Rocket 2.8 03:41:47 10° SSW 03:47:23 70° WNW 03:53:01 10° NNE
